{"data":{"norad_id":58686,"intl_designator":"2023-211V","name":"STARLINK-31137","alt_names":[],"object_type":"PAYLOAD","status":"ACTIVE","operator":null,"country":"US","launch_date":"2023-12-29","launch_site_code":"AFETR","launch_vehicle":null,"mission":null,"orbit_class":"UNKNOWN","rcs_meters":null,"size_class":null,"mass_kg":null,"dimensions":null,"purposes":["comms"],"wikipedia_slug":null,"has_3d_model":false,"image_url":null,"decayed_at":null,"tle_current":{"epoch":"2026-05-24T23:56:03.396192Z","epoch_age_seconds":85456,"freshness":"FRESH","line1":"1 58686U 23211V   26144.99726153 -.00000272  00000+0 -37190-6 0  9999","line2":"2 58686  43.0016  14.4385 0001084 274.0154  86.0574 15.27590535134134","mean_motion":15.27590535,"eccentricity":0.0001084,"inclination_deg":43.0016,"raan_deg":14.4385,"arg_perigee_deg":274.0154,"mean_anomaly_deg":86.0574,"bstar":-3.719e-7,"rev_number":13413,"period_min":94.266098604755,"perigee_km":482.27380148771,"apogee_km":483.76129979429,"semimajor_km":6861.154550641,"source":"CELESTRAK","updated_at":"2026-05-25T13:38:18.714046Z"}}}